FDX7 FAOR-HKJK

Flight info

Callsign FDX7
Flight time N/A
Altitude 37000
Route VASUR3B VASUR UZ23 IMKUP UQ6 GWV UP312 VMV UR409 USUBI UM315 EVATO EVATO2P
Aircraft B77L/H-SDE1E2E3FGHIJ2J3J4J5M1RWXY/LB1D1

Departure

Time 2026-05-06 07:25
Airport O.R. Tambo International Airport (FAOR)

Arrival

Time N/A
Airport Jomo Kenyatta International Airport (HKJK)
Time Latitude Longitude Altitude Speed Heading
2026-05-06 07:02 -26.11484 28.24044 5527 ft 0 kts 331°
2026-05-06 07:17 -26.11491 28.24048 5527 ft 4 kts 331°
2026-05-06 07:17 -26.11514 28.24063 5520 ft 4 kts 331°
2026-05-06 07:17 -26.11534 28.24075 5529 ft 3 kts 331°
2026-05-06 07:18 -26.11558 28.24087 5534 ft 4 kts 345°
2026-05-06 07:18 -26.11583 28.24092 5538 ft 4 kts
2026-05-06 07:18 -26.11610 28.24089 5536 ft 4 kts 14°
2026-05-06 07:18 -26.11617 28.24087 5539 ft 0 kts 15°
2026-05-06 07:20 -26.11616 28.24087 5539 ft 0 kts 15°
2026-05-06 07:20 -26.11583 28.24097 5534 ft 10 kts 16°
2026-05-06 07:21 -26.11506 28.24123 5527 ft 10 kts 22°
2026-05-06 07:21 -26.11477 28.24192 5527 ft 10 kts 72°
2026-05-06 07:21 -26.11419 28.24232 5527 ft 10 kts 16°
2026-05-06 07:21 -26.11345 28.24254 5527 ft 13 kts 15°
2026-05-06 07:22 -26.11260 28.24280 5525 ft 13 kts 15°
2026-05-06 07:22 -26.11165 28.24310 5521 ft 15 kts 15°
2026-05-06 07:22 -26.11061 28.24342 5519 ft 16 kts 15°
2026-05-06 07:22 -26.10958 28.24374 5518 ft 11 kts 15°
2026-05-06 07:23 -26.10905 28.24432 5515 ft 12 kts 61°
2026-05-06 07:23 -26.10862 28.24518 5512 ft 13 kts 60°
2026-05-06 07:23 -26.10869 28.24587 5512 ft 8 kts 133°
2026-05-06 07:23 -26.10921 28.24588 5513 ft 8 kts 195°
2026-05-06 07:24 -26.10925 28.24586 5513 ft 0 kts 195°
2026-05-06 07:24 -26.10926 28.24586 5513 ft 2 kts 195°
2026-05-06 07:24 -26.11025 28.24556 5518 ft 28 kts 195°
2026-05-06 07:24 -26.11308 28.24467 5526 ft 63 kts 195°
2026-05-06 07:25 -26.11994 28.24255 5532 ft 142 kts 195°
2026-05-06 07:25 -26.13165 28.23895 5603 ft 199 kts 197°
2026-05-06 07:25 -26.14462 28.23468 6575 ft 184 kts 199°
2026-05-06 07:25 -26.15703 28.23093 7419 ft 189 kts 200°
2026-05-06 07:26 -26.17017 28.22653 7752 ft 209 kts 203°
2026-05-06 07:26 -26.18454 28.22106 8133 ft 230 kts 203°
2026-05-06 07:26 -26.20070 28.21518 8314 ft 264 kts 202°
2026-05-06 07:26 -26.21891 28.20896 8930 ft 277 kts 201°
2026-05-06 07:27 -26.23779 28.20294 9793 ft 286 kts 201°
2026-05-06 07:27 -26.25708 28.19679 10569 ft 293 kts 204°
2026-05-06 07:27 -26.27709 28.18970 11001 ft 315 kts 205°
2026-05-06 07:27 -26.29898 28.18214 11299 ft 342 kts 204°
2026-05-06 07:28 -26.32150 28.17263 11516 ft 350 kts 219°
2026-05-06 07:28 -26.33885 28.15363 11785 ft 351 kts 246°
2026-05-06 07:28 -26.34347 28.10265 13532 ft 332 kts 285°
2026-05-06 07:29 -26.34163 28.07664 14334 ft 340 kts 275°
2026-05-06 07:29 -26.34212 28.04976 14877 ft 351 kts 276°
2026-05-06 07:29 -26.33986 28.02316 15642 ft 343 kts 291°
2026-05-06 07:29 -26.32937 28.00007 16724 ft 329 kts 305°
2026-05-06 07:30 -26.31610 27.97940 17438 ft 335 kts 307°
2026-05-06 07:30 -26.30163 27.95922 18185 ft 333 kts 314°
2026-05-06 07:30 -26.28231 27.94437 18691 ft 340 kts 329°
2026-05-06 07:30 -26.26089 27.93205 19002 ft 349 kts 327°
2026-05-06 07:31 -26.23862 27.92120 19527 ft 359 kts 338°
2026-05-06 07:31 -26.21336 27.91728 20115 ft 373 kts 351°
2026-05-06 07:31 -26.18752 27.91761 20636 ft 380 kts 352°
2026-05-06 07:31 -26.16081 27.91761 21226 ft 384 kts 351°
2026-05-06 07:32 -26.13398 27.91720 21880 ft 387 kts 351°
2026-05-06 07:32 -26.10691 27.91663 22527 ft 391 kts 350°
2026-05-06 07:32 -26.07952 27.91604 23087 ft 396 kts 351°
2026-05-06 07:32 -26.05178 27.91547 23648 ft 401 kts 351°
2026-05-06 07:33 -26.02367 27.91492 24112 ft 406 kts 351°
2026-05-06 07:33 -25.99565 27.91442 24652 ft 407 kts 351°
2026-05-06 07:33 -25.96726 27.91390 25225 ft 409 kts 351°
2026-05-06 07:33 -25.93868 27.91330 25780 ft 411 kts 350°
2026-05-06 07:34 -25.91006 27.91204 26294 ft 413 kts 349°
2026-05-06 07:34 -25.88117 27.91037 26812 ft 415 kts 349°
2026-05-06 07:34 -25.85222 27.90863 27312 ft 418 kts 349°
2026-05-06 07:34 -25.82299 27.90692 27823 ft 421 kts 349°
2026-05-06 07:35 -25.79397 27.90528 28314 ft 424 kts 349°
2026-05-06 07:35 -25.76443 27.90367 28779 ft 427 kts 350°
2026-05-06 07:35 -25.73456 27.90207 29244 ft 430 kts 350°
2026-05-06 07:35 -25.71466 27.90102 29551 ft 431 kts 350°
2026-05-06 07:36 -25.68461 27.89944 30026 ft 433 kts 350°
2026-05-06 07:36 -25.65454 27.89786 30547 ft 432 kts 350°
2026-05-06 07:36 -25.62460 27.89629 31065 ft 430 kts 349°
2026-05-06 07:36 -25.59476 27.89471 31567 ft 428 kts 350°
2026-05-06 07:37 -25.56471 27.89572 31925 ft 441 kts 359°
2026-05-06 07:37 -25.53451 27.90444 32293 ft 458 kts 12°
2026-05-06 07:37 -25.50511 27.91874 32585 ft 463 kts 13°
2026-05-06 07:37 -25.47553 27.93321 32972 ft 463 kts 13°
2026-05-06 07:38 -25.44644 27.94727 33483 ft 461 kts 13°
2026-05-06 07:38 -25.41706 27.96130 33955 ft 459 kts 13°
2026-05-06 07:38 -25.38766 27.97518 34313 ft 459 kts 12°
2026-05-06 07:38 -25.35817 27.98900 34625 ft 460 kts 12°
2026-05-06 07:39 -25.32850 28.00284 34917 ft 461 kts 12°
2026-05-06 07:39 -25.29927 28.01648 35227 ft 461 kts 12°
2026-05-06 07:39 -25.26968 28.03028 35546 ft 462 kts 12°
2026-05-06 07:39 -25.24000 28.04412 35853 ft 462 kts 12°
2026-05-06 07:40 -25.21032 28.05797 36156 ft 462 kts 12°
2026-05-06 07:40 -25.18063 28.07182 36460 ft 463 kts 12°
2026-05-06 07:40 -25.15096 28.08565 36744 ft 463 kts 12°
2026-05-06 07:40 -25.12119 28.09951 36971 ft 465 kts 12°
2026-05-06 07:41 -25.06145 28.12728 37058 ft 469 kts 12°
2026-05-06 07:41 -25.00155 28.15522 37046 ft 463 kts 12°
2026-05-06 07:42 -24.94219 28.18281 37050 ft 461 kts 12°
2026-05-06 07:42 -24.88306 28.21022 37053 ft 460 kts 12°
2026-05-06 07:43 -24.82440 28.23738 37060 ft 459 kts 11°
2026-05-06 07:43 -24.76477 28.26135 37052 ft 455 kts
2026-05-06 07:44 -24.70476 28.28414 37061 ft 456 kts
2026-05-06 07:44 -24.64448 28.30711 37054 ft 459 kts
2026-05-06 07:45 -24.58402 28.33034 37054 ft 461 kts
2026-05-06 07:45 -24.52368 28.35358 37056 ft 463 kts
2026-05-06 07:46 -24.46275 28.37703 37052 ft 464 kts
2026-05-06 07:46 -24.40157 28.40054 37044 ft 466 kts
2026-05-06 07:47 -24.34060 28.42395 37047 ft 466 kts
2026-05-06 07:47 -24.27932 28.44744 37038 ft 466 kts
2026-05-06 07:48 -24.21821 28.47086 37057 ft 465 kts
2026-05-06 07:48 -24.15712 28.49424 37061 ft 464 kts
2026-05-06 07:49 -24.09623 28.51751 37033 ft 463 kts
2026-05-06 07:49 -24.03546 28.54072 37037 ft 462 kts
2026-05-06 07:50 -23.97515 28.56372 37032 ft 461 kts
2026-05-06 07:50 -23.91452 28.58682 37040 ft 461 kts
2026-05-06 07:51 -23.85375 28.60995 37040 ft 461 kts
2026-05-06 07:51 -23.79423 28.63627 37045 ft 468 kts 15°
2026-05-06 07:52 -23.73496 28.66649 37036 ft 470 kts 15°
2026-05-06 07:52 -23.67569 28.69678 37027 ft 470 kts 15°
2026-05-06 07:53 -23.61628 28.72690 37039 ft 470 kts 15°
2026-05-06 07:53 -23.55723 28.75666 37040 ft 470 kts 15°
2026-05-06 07:54 -23.49779 28.78657 37036 ft 470 kts 15°
2026-05-06 07:54 -23.43837 28.81645 37041 ft 470 kts 15°
2026-05-06 07:55 -23.37897 28.84629 37033 ft 470 kts 15°
2026-05-06 07:55 -23.31962 28.87608 37039 ft 469 kts 15°
2026-05-06 07:56 -23.26058 28.90568 37032 ft 470 kts 15°
2026-05-06 07:56 -23.20119 28.93542 37034 ft 470 kts 15°
2026-05-06 07:57 -23.14182 28.96513 37031 ft 469 kts 15°
2026-05-06 07:57 -23.08244 28.99482 37028 ft 469 kts 15°
2026-05-06 07:58 -23.02315 29.02442 37027 ft 471 kts 15°
2026-05-06 07:58 -22.96351 29.05417 37020 ft 471 kts 15°
2026-05-06 07:59 -22.90417 29.08376 37023 ft 472 kts 15°
2026-05-06 07:59 -22.84425 29.11360 37026 ft 473 kts 15°
2026-05-06 08:00 -22.78460 29.14327 37021 ft 474 kts 15°
2026-05-06 08:00 -22.72459 29.17310 37030 ft 474 kts 16°
2026-05-06 08:01 -22.66452 29.20293 37027 ft 475 kts 16°
2026-05-06 08:01 -22.60466 29.23263 37021 ft 475 kts 16°
2026-05-06 08:02 -22.54448 29.26246 37018 ft 475 kts 16°
2026-05-06 08:02 -22.48427 29.29227 37018 ft 475 kts 16°
2026-05-06 08:03 -22.42406 29.32206 37010 ft 475 kts 16°
2026-05-06 08:03 -22.36417 29.35166 37019 ft 476 kts 16°
2026-05-06 08:04 -22.30390 29.38142 37015 ft 475 kts 16°
2026-05-06 08:04 -22.24379 29.41135 37019 ft 477 kts 18°
2026-05-06 08:05 -22.18562 29.44637 37018 ft 481 kts 21°
2026-05-06 08:05 -22.12784 29.48315 37021 ft 484 kts 23°
2026-05-06 08:06 -22.07075 29.52188 37027 ft 484 kts 24°
2026-05-06 08:06 -22.01380 29.56072 37021 ft 484 kts 23°
2026-05-06 08:07 -21.95670 29.59926 37020 ft 484 kts 23°
2026-05-06 08:07 -21.89990 29.63736 37020 ft 483 kts 23°
2026-05-06 08:08 -21.84286 29.67553 37019 ft 483 kts 23°
2026-05-06 08:08 -21.78579 29.71370 37026 ft 483 kts 23°
2026-05-06 08:09 -21.72868 29.75187 37020 ft 483 kts 23°
2026-05-06 08:09 -21.67152 29.79005 37021 ft 483 kts 23°
2026-05-06 08:10 -21.61477 29.82791 37028 ft 483 kts 22°
2026-05-06 08:10 -21.55768 29.86597 37026 ft 483 kts 22°
2026-05-06 08:11 -21.50037 29.90413 37026 ft 483 kts 22°
2026-05-06 08:11 -21.44359 29.94191 37025 ft 483 kts 22°
2026-05-06 08:12 -21.38639 29.97993 37022 ft 483 kts 22°
2026-05-06 08:12 -21.32926 30.01788 37024 ft 483 kts 22°
2026-05-06 08:13 -21.27199 30.05587 37015 ft 483 kts 23°
2026-05-06 08:13 -21.21511 30.09358 37029 ft 483 kts 23°
2026-05-06 08:14 -21.15782 30.13152 37033 ft 483 kts 23°
2026-05-06 08:14 -21.10037 30.16953 37022 ft 484 kts 23°
2026-05-06 08:15 -21.04344 30.20716 37023 ft 484 kts 23°
2026-05-06 08:15 -20.98599 30.24511 37020 ft 484 kts 23°
2026-05-06 08:16 -20.92866 30.28293 37015 ft 484 kts 23°
2026-05-06 08:16 -20.87163 30.32053 37019 ft 484 kts 23°
2026-05-06 08:17 -20.81429 30.35831 37020 ft 484 kts 23°
2026-05-06 08:17 -20.75699 30.39602 37015 ft 483 kts 23°
2026-05-06 08:18 -20.69969 30.43369 37021 ft 483 kts 24°
2026-05-06 08:18 -20.64268 30.47113 37015 ft 483 kts 23°
2026-05-06 08:19 -20.58525 30.50882 37028 ft 483 kts 24°
2026-05-06 08:19 -20.52827 30.54617 37018 ft 483 kts 24°
2026-05-06 08:20 -20.47085 30.58381 37016 ft 483 kts 24°
2026-05-06 08:20 -20.41343 30.62140 37010 ft 484 kts 24°
2026-05-06 08:21 -20.35626 30.65878 37013 ft 484 kts 24°
2026-05-06 08:21 -20.29875 30.69635 37034 ft 484 kts 24°
2026-05-06 08:22 -20.24131 30.73385 37046 ft 485 kts 24°
2026-05-06 08:22 -20.19348 30.76505 37060 ft 485 kts 24°
2026-05-06 08:23 -20.12634 30.80883 37067 ft 486 kts 24°
2026-05-06 08:23 -20.07839 30.84006 37074 ft 486 kts 24°
2026-05-06 08:24 -20.01908 30.87313 37073 ft 478 kts 17°
2026-05-06 08:24 -19.95810 30.90164 37072 ft 478 kts 16°
2026-05-06 08:25 -19.89701 30.93009 37063 ft 479 kts 17°
2026-05-06 08:25 -19.83608 30.95881 37053 ft 479 kts 17°
2026-05-06 08:26 -19.77504 30.98775 37047 ft 480 kts 17°
2026-05-06 08:26 -19.71442 31.01648 37043 ft 480 kts 17°
2026-05-06 08:27 -19.65329 31.04543 37047 ft 480 kts 17°
2026-05-06 08:27 -19.59224 31.07429 37056 ft 480 kts 17°
2026-05-06 08:28 -19.53161 31.10293 37054 ft 479 kts 17°
2026-05-06 08:28 -19.47061 31.13173 37062 ft 479 kts 17°
2026-05-06 08:29 -19.40966 31.16047 37061 ft 479 kts 17°
2026-05-06 08:29 -19.34875 31.18918 37072 ft 478 kts 18°
2026-05-06 08:30 -19.28790 31.21783 37070 ft 478 kts 18°
2026-05-06 08:30 -19.22746 31.24627 37070 ft 478 kts 18°
2026-05-06 08:31 -19.16653 31.27491 37074 ft 479 kts 18°
2026-05-06 08:31 -19.10551 31.30358 37076 ft 479 kts 18°
2026-05-06 08:32 -19.04494 31.33217 37087 ft 479 kts 18°
2026-05-06 08:32 -18.98402 31.36114 37073 ft 480 kts 18°
2026-05-06 08:33 -18.92307 31.39012 37098 ft 480 kts 18°
2026-05-06 08:33 -18.86204 31.41907 37089 ft 480 kts 18°
2026-05-06 08:34 -18.77062 31.46237 37091 ft 481 kts 18°
2026-05-06 08:35 -18.70941 31.49134 37099 ft 481 kts 18°
2026-05-06 08:35 -18.64870 31.52005 37107 ft 482 kts 18°
2026-05-06 08:36 -18.58745 31.54899 37112 ft 482 kts 18°
2026-05-06 08:36 -18.52626 31.57789 37111 ft 482 kts 18°
2026-05-06 08:37 -18.46509 31.60674 37127 ft 481 kts 18°
2026-05-06 08:37 -18.40428 31.63542 37126 ft 481 kts 18°
2026-05-06 08:38 -18.34301 31.66428 37131 ft 481 kts 18°
2026-05-06 08:38 -18.28176 31.69311 37133 ft 482 kts 19°
2026-05-06 08:39 -18.22050 31.72193 37140 ft 482 kts 19°
2026-05-06 08:39 -18.15925 31.75089 37143 ft 482 kts 19°
2026-05-06 08:40 -18.09849 31.77979 37151 ft 482 kts 19°
2026-05-06 08:40 -18.03725 31.80891 37144 ft 483 kts 19°
2026-05-06 08:41 -17.97592 31.83802 37142 ft 483 kts 19°
2026-05-06 08:41 -17.91459 31.86709 37136 ft 484 kts 19°
2026-05-06 08:42 -17.85322 31.89616 37127 ft 484 kts 19°
2026-05-06 08:42 -17.79190 31.92519 37127 ft 484 kts 19°
2026-05-06 08:43 -17.73048 31.95424 37129 ft 483 kts 19°
2026-05-06 08:43 -17.66943 31.98309 37121 ft 484 kts 19°
2026-05-06 08:44 -17.60801 32.01210 37120 ft 484 kts 19°
2026-05-06 08:44 -17.54657 32.04109 37116 ft 484 kts 19°
2026-05-06 08:45 -17.48513 32.07006 37111 ft 484 kts 19°
2026-05-06 08:45 -17.42370 32.09901 37112 ft 484 kts 19°
2026-05-06 08:46 -17.36262 32.12777 37101 ft 484 kts 19°
2026-05-06 08:46 -17.30109 32.15673 37099 ft 484 kts 19°
2026-05-06 08:47 -17.23968 32.18560 37088 ft 484 kts 19°
2026-05-06 08:47 -17.17823 32.21448 37090 ft 483 kts 19°
2026-05-06 08:48 -17.11725 32.24311 37077 ft 483 kts 19°
2026-05-06 08:48 -17.05589 32.27208 37076 ft 483 kts 20°
2026-05-06 08:49 -16.99458 32.30124 37070 ft 484 kts 20°
2026-05-06 08:49 -16.93325 32.33037 37074 ft 484 kts 20°
2026-05-06 08:50 -16.87209 32.35938 37049 ft 484 kts 20°
2026-05-06 08:50 -16.81077 32.38843 37064 ft 484 kts 20°
2026-05-06 08:51 -16.74940 32.41748 37056 ft 484 kts 20°
2026-05-06 08:51 -16.68808 32.44648 37034 ft 484 kts 20°
2026-05-06 08:52 -16.62668 32.47552 37038 ft 484 kts 20°
2026-05-06 08:52 -16.56537 32.50448 37034 ft 484 kts 20°
2026-05-06 08:53 -16.50400 32.53345 37023 ft 484 kts 20°
2026-05-06 08:53 -16.44337 32.56305 37023 ft 485 kts 21°
2026-05-06 08:54 -16.38254 32.59345 37011 ft 485 kts 21°
2026-05-06 08:54 -16.32167 32.62377 37002 ft 485 kts 21°
2026-05-06 08:55 -16.26077 32.65395 37001 ft 485 kts 21°
2026-05-06 08:55 -16.19981 32.68409 36994 ft 485 kts 21°
2026-05-06 08:56 -16.13882 32.71421 36991 ft 485 kts 21°
2026-05-06 08:56 -16.07785 32.74432 36985 ft 485 kts 21°
2026-05-06 08:57 -16.01680 32.77445 36984 ft 485 kts 21°
2026-05-06 08:57 -15.95579 32.80454 36976 ft 486 kts 21°
2026-05-06 08:58 -15.89472 32.83464 36976 ft 486 kts 21°
2026-05-06 08:58 -15.83363 32.86472 36969 ft 486 kts 21°
2026-05-06 08:59 -15.77248 32.89482 36968 ft 486 kts 21°
2026-05-06 08:59 -15.71130 32.92492 36973 ft 486 kts 21°
2026-05-06 09:00 -15.65010 32.95500 36971 ft 487 kts 21°
2026-05-06 09:00 -15.58890 32.98507 36977 ft 487 kts 21°
2026-05-06 09:01 -15.52756 33.01475 36980 ft 487 kts 21°
2026-05-06 09:01 -15.46605 33.04411 36978 ft 487 kts 21°
2026-05-06 09:02 -15.40498 33.07331 36989 ft 487 kts 21°
2026-05-06 09:02 -15.34345 33.10277 36981 ft 487 kts 21°
2026-05-06 09:03 -15.28195 33.13222 36989 ft 487 kts 21°
2026-05-06 09:03 -15.22046 33.16164 36998 ft 487 kts 21°
2026-05-06 09:04 -15.15894 33.19106 36995 ft 487 kts 21°
2026-05-06 09:04 -15.09747 33.22044 37006 ft 486 kts 21°
2026-05-06 09:05 -15.03629 33.24966 37014 ft 486 kts 21°
2026-05-06 09:05 -14.97453 33.27892 37020 ft 486 kts 20°
2026-05-06 09:06 -14.91263 33.30707 37022 ft 486 kts 20°
2026-05-06 09:06 -14.85096 33.33492 37031 ft 486 kts 20°
2026-05-06 09:07 -14.78898 33.36306 37046 ft 486 kts 20°
2026-05-06 09:07 -14.72708 33.39122 37048 ft 486 kts 20°
2026-05-06 09:08 -14.66551 33.41923 37048 ft 486 kts 20°
2026-05-06 09:08 -14.60355 33.44739 37057 ft 486 kts 20°
2026-05-06 09:09 -14.54157 33.47555 37074 ft 486 kts 20°
2026-05-06 09:09 -14.47971 33.50377 37073 ft 486 kts 20°
2026-05-06 09:10 -14.41788 33.53200 37087 ft 486 kts 20°
2026-05-06 09:10 -14.35602 33.56021 37089 ft 486 kts 20°
2026-05-06 09:11 -14.29457 33.58821 37091 ft 486 kts 20°
2026-05-06 09:11 -14.23262 33.61642 37100 ft 486 kts 20°
2026-05-06 09:12 -14.18117 33.63983 37103 ft 486 kts 20°
2026-05-06 09:12 -14.11915 33.66805 37095 ft 486 kts 21°
2026-05-06 09:13 -14.05718 33.69622 37122 ft 486 kts 21°
2026-05-06 09:13 -13.99565 33.72418 37137 ft 486 kts 21°
2026-05-06 09:14 -13.93372 33.75230 37127 ft 486 kts 21°
2026-05-06 09:14 -13.87171 33.78045 37132 ft 486 kts 21°
2026-05-06 09:15 -13.80940 33.80774 37132 ft 485 kts 17°
2026-05-06 09:15 -13.74467 33.82643 37129 ft 482 kts 11°
2026-05-06 09:16 -13.67987 33.84279 37130 ft 482 kts 11°
2026-05-06 09:16 -13.61459 33.85952 37119 ft 483 kts 11°
2026-05-06 09:17 -13.54938 33.87654 37121 ft 483 kts 12°
2026-05-06 09:17 -13.48425 33.89363 37108 ft 483 kts 12°
2026-05-06 09:18 -13.41932 33.91064 37107 ft 483 kts 12°
2026-05-06 09:18 -13.35417 33.92770 37099 ft 483 kts 12°
2026-05-06 09:19 -13.28941 33.94463 37095 ft 483 kts 12°
2026-05-06 09:19 -13.22420 33.96167 37093 ft 483 kts 12°
2026-05-06 09:20 -13.15895 33.97872 37083 ft 483 kts 12°
2026-05-06 09:20 -13.09383 33.99572 37077 ft 482 kts 12°
2026-05-06 09:21 -13.02919 34.01260 37081 ft 482 kts 12°
2026-05-06 09:21 -12.96401 34.02952 37072 ft 482 kts 12°
2026-05-06 09:22 -12.89880 34.04617 37063 ft 483 kts 12°
2026-05-06 09:22 -12.83355 34.06277 37066 ft 483 kts 12°
2026-05-06 09:23 -12.76830 34.07942 37065 ft 483 kts 12°
2026-05-06 09:23 -12.70309 34.09607 37062 ft 483 kts 12°
2026-05-06 09:24 -12.63782 34.11272 37061 ft 483 kts 12°
2026-05-06 09:24 -12.57295 34.12927 37056 ft 483 kts 12°
2026-05-06 09:25 -12.50760 34.14592 37051 ft 483 kts 12°
2026-05-06 09:25 -12.44226 34.16257 37046 ft 484 kts 12°
2026-05-06 09:26 -12.37689 34.17921 37041 ft 484 kts 12°
2026-05-06 09:26 -12.31153 34.19584 37037 ft 483 kts 12°
2026-05-06 09:27 -12.24660 34.21236 37038 ft 483 kts 12°
2026-05-06 09:27 -12.18121 34.22898 37031 ft 483 kts 12°
2026-05-06 09:28 -12.11585 34.24559 37028 ft 483 kts 12°
2026-05-06 09:28 -12.05092 34.26208 37025 ft 483 kts 12°
2026-05-06 09:29 -11.98570 34.27864 37020 ft 483 kts 12°
2026-05-06 09:29 -11.92036 34.29522 37018 ft 483 kts 12°
2026-05-06 09:30 -11.85505 34.31178 37019 ft 483 kts 12°
2026-05-06 09:30 -11.78977 34.32833 37014 ft 483 kts 13°
2026-05-06 09:31 -11.72440 34.34489 37008 ft 483 kts 13°
2026-05-06 09:31 -11.65943 34.36134 37007 ft 484 kts 13°
2026-05-06 09:32 -11.59409 34.37788 37006 ft 484 kts 13°
2026-05-06 09:32 -11.52864 34.39444 37003 ft 484 kts 13°
2026-05-06 09:33 -11.46321 34.41099 37003 ft 484 kts 13°
2026-05-06 09:33 -11.39780 34.42753 37001 ft 484 kts 13°
2026-05-06 09:34 -11.33286 34.44459 37000 ft 485 kts 14°
2026-05-06 09:34 -11.26762 34.46227 36997 ft 485 kts 14°
2026-05-06 09:35 -11.20241 34.47979 36997 ft 485 kts 14°
2026-05-06 09:35 -11.13688 34.49698 36997 ft 485 kts 13°
2026-05-06 09:36 -11.07164 34.51269 36993 ft 485 kts 12°
2026-05-06 09:36 -11.00588 34.52831 36989 ft 484 kts 12°
2026-05-06 09:37 -10.94008 34.54413 36988 ft 484 kts 12°
2026-05-06 09:37 -10.87483 34.55992 36992 ft 484 kts 12°
2026-05-06 09:38 -10.80925 34.57579 36992 ft 484 kts 13°
2026-05-06 09:38 -10.74363 34.59165 36993 ft 484 kts 13°
2026-05-06 09:39 -10.67794 34.60752 36993 ft 484 kts 13°
2026-05-06 09:39 -10.61259 34.62330 36998 ft 484 kts 13°
2026-05-06 09:40 -10.54686 34.63921 36984 ft 485 kts 13°
2026-05-06 09:40 -10.44859 34.66476 36989 ft 485 kts 14°
2026-05-06 09:41 -10.38364 34.68189 36996 ft 485 kts 14°
2026-05-06 09:41 -10.31825 34.69900 37002 ft 484 kts 14°
2026-05-06 09:42 -10.25293 34.71600 37002 ft 484 kts 14°
2026-05-06 09:42 -10.18788 34.73293 37014 ft 484 kts 14°
2026-05-06 09:43 -10.12250 34.74993 37017 ft 485 kts 14°
2026-05-06 09:43 -10.05708 34.76695 37024 ft 485 kts 14°
2026-05-06 09:44 -9.99158 34.78397 37032 ft 485 kts 14°
2026-05-06 09:44 -9.92619 34.80097 37039 ft 485 kts 14°
2026-05-06 09:45 -9.86122 34.81785 37044 ft 485 kts 14°
2026-05-06 09:45 -9.79572 34.83485 37050 ft 485 kts 14°
2026-05-06 09:46 -9.73041 34.85180 37054 ft 484 kts 14°
2026-05-06 09:46 -9.66501 34.86877 37055 ft 484 kts 14°
2026-05-06 09:47 -9.60002 34.88563 37060 ft 484 kts 14°
2026-05-06 09:47 -9.53460 34.90259 37062 ft 484 kts 14°
2026-05-06 09:48 -9.46962 34.91943 37060 ft 484 kts 14°
2026-05-06 09:48 -9.40423 34.93637 37065 ft 484 kts 14°
2026-05-06 09:49 -9.33903 34.95325 37065 ft 484 kts 14°
2026-05-06 09:49 -9.27362 34.97003 37066 ft 483 kts 14°
2026-05-06 09:50 -9.20868 34.98628 37062 ft 483 kts 14°
2026-05-06 09:50 -9.14322 35.00262 37065 ft 483 kts 14°
2026-05-06 09:51 -9.07824 35.01890 37062 ft 483 kts 14°
2026-05-06 09:51 -9.01293 35.03529 37056 ft 483 kts 14°
2026-05-06 09:52 -8.94758 35.05168 37059 ft 483 kts 14°
2026-05-06 09:52 -8.88209 35.06809 37058 ft 483 kts 14°
2026-05-06 09:53 -8.81717 35.08436 37052 ft 484 kts 14°
2026-05-06 09:53 -8.75183 35.10073 37052 ft 484 kts 14°
2026-05-06 09:54 -8.68639 35.11711 37054 ft 484 kts 14°
2026-05-06 09:54 -8.62124 35.13343 37045 ft 484 kts 14°
2026-05-06 09:55 -8.55570 35.14984 37046 ft 484 kts 14°
2026-05-06 09:55 -8.49029 35.16629 37048 ft 484 kts 14°
2026-05-06 09:56 -8.42484 35.18277 37039 ft 484 kts 14°
2026-05-06 09:56 -8.35983 35.19911 37036 ft 484 kts 14°
2026-05-06 09:57 -8.29444 35.21556 37033 ft 484 kts 14°
2026-05-06 09:57 -8.22902 35.23200 37029 ft 484 kts 14°